Billings, MT

2:02 PM MDT on June 23, 2017 (GMT -0600)
Billings Logan International

Weather History for KBIL - January, 2011

Change the Weather History Date:

Thursday, January 27, 2011

  Actual Average Record
Temperature  
Mean Temperature 41 °F 28 °F  
Max Temperature 46 °F 37 °F 67 °F (2015)
Min Temperature 36 °F 19 °F -27 °F (1972)
Degree Days  
Heating Degree Days 24 37  
Month to date heating degree days 1015 1027  
Since 1 July heating degree days 3864 3848  
Cooling Degree Days 0 0  
Month to date cooling degree days 0 0  
Year to date cooling degree days 0 0  
Moisture  
Dew Point 25 °F    
Average Humidity 53    
Maximum Humidity 64    
Minimum Humidity 42    
Precipitation  
Precipitation 0.00 in 0.02 in 0.34 in (1949)
Month to date precipitation 0.20 0.42  
Year to date precipitation 0.20 0.42  
Snow  
Snow 0.00 in 0.20 in 4.80 in (1949)
Month to date snowfall 2.3 7.4  
Since 1 July snowfall 41.4 27.3  
Snow Depth 0.00 in    
Sea Level Pressure  
Sea Level Pressure 30.04 in    
Wind  
Wind Speed 19 mph (WSW)    
Max Wind Speed 26 mph    
Max Gust Speed 33 mph    
Visibility 10 miles    
Events      
T = Trace of Precipitation, MM = Missing Value Source: NWS Daily Summary

Daily Weather History Graph

Daily Weather History Graph

Search for Another Location

Airport or City:

Trip Planner

Search our weather history database for the weather conditions in past years. The results will help you decide how hot, cold, wet, or windy it might be!

Date:

Astronomy

Jan. 27, 2011 Rise Set
Actual Time 7:41 AM MST 5:12 PM MST
Civil Twilight 7:09 AM MST 5:44 PM MST
Nautical Twilight 6:33 AM MST 6:20 PM MST
Astronomical Twilight 5:58 AM MST 6:56 PM MST
Moon 2:18 AM MST (1/27) 11:28 AM MST (1/27)
Length of Visible Light 10h 35m
Length of Day
9h 30m
Last Quarter, 37% of the Moon is Illuminated
Jan 27
Last Quarter
Feb 2
New
Feb 11
First Quarter
Feb 18
Full
Feb 24
Last Quarter

Hourly Weather History & Observations

Time (MST) Temp. Windchill Dew Point Humidity Pressure Visibility Wind Dir Wind Speed Gust Speed Precip Events Conditions
12:53 AM 46.0 °F 37.8 °F 25.0 °F 44% 30.10 in 10.0 mi WNW 23.0 mph 28.8 mph N/A   Scattered Clouds
1:53 AM 44.1 °F 37.4 °F 25.0 °F 47% 30.11 in 10.0 mi WNW 13.8 mph - N/A   Partly Cloudy
2:53 AM 44.1 °F 35.2 °F 25.0 °F 47% 30.12 in 10.0 mi West 23.0 mph 27.6 mph N/A   Partly Cloudy
3:53 AM 44.1 °F 35.2 °F 25.0 °F 47% 30.10 in 10.0 mi West 23.0 mph - N/A   Partly Cloudy
4:53 AM 41.0 °F 36.4 °F 25.0 °F 53% 30.12 in 10.0 mi SW 6.9 mph 20.7 mph N/A   Clear
5:53 AM 44.1 °F 35.9 °F 24.1 °F 45% 30.12 in 10.0 mi WNW 19.6 mph - N/A   Scattered Clouds
6:53 AM 45.0 °F 36.6 °F 24.1 °F 44% 30.11 in 10.0 mi West 21.9 mph 33.4 mph N/A   Scattered Clouds
7:53 AM 44.1 °F 36.8 °F 24.1 °F 45% 30.11 in 10.0 mi WSW 16.1 mph 28.8 mph N/A   Mostly Cloudy
8:53 AM 37.0 °F 28.9 °F 25.0 °F 62% 30.12 in 10.0 mi SW 12.7 mph - N/A   Mostly Cloudy
9:53 AM 37.0 °F 27.4 °F 26.1 °F 65% 30.11 in 10.0 mi SW 17.3 mph - N/A   Mostly Cloudy
10:53 AM 41.0 °F 32.8 °F 27.0 °F 57% 30.09 in 10.0 mi SW 16.1 mph - N/A   Mostly Cloudy
11:53 AM 41.0 °F 31.4 °F 26.1 °F 55% 30.06 in 10.0 mi WSW 21.9 mph - N/A   Mostly Cloudy
12:53 PM 43.0 °F 34.2 °F 27.0 °F 53% 30.01 in 10.0 mi WSW 20.7 mph 25.3 mph N/A   Mostly Cloudy
1:53 PM 45.0 °F 36.4 °F 27.0 °F 49% 29.99 in 10.0 mi WSW 23.0 mph - N/A   Scattered Clouds
2:53 PM 46.0 °F 38.8 °F 26.1 °F 46% 29.99 in 10.0 mi WSW 18.4 mph - N/A   Mostly Cloudy
3:53 PM 46.0 °F 39.0 °F 25.0 °F 44% 29.98 in 10.0 mi WSW 17.3 mph 32.2 mph N/A   Scattered Clouds
4:53 PM 42.1 °F 32.6 °F 25.0 °F 51% 29.99 in 10.0 mi WSW 23.0 mph - N/A   Scattered Clouds
5:53 PM 42.1 °F 32.6 °F 25.0 °F 51% 29.98 in 10.0 mi SW 23.0 mph 28.8 mph N/A   Mostly Cloudy
6:53 PM 41.0 °F 31.4 °F 25.0 °F 53% 29.97 in 10.0 mi WSW 21.9 mph - N/A   Scattered Clouds
7:53 PM 39.9 °F 30.5 °F 25.0 °F 55% 29.96 in 10.0 mi SW 19.6 mph 25.3 mph N/A   Scattered Clouds
8:53 PM 39.9 °F 30.0 °F 25.0 °F 55% 29.95 in 10.0 mi WSW 21.9 mph - N/A   Partly Cloudy
9:53 PM 41.0 °F 31.4 °F 24.8 °F 53% 29.90 in 10.0 mi WSW 21.9 mph 29.9 mph N/A   Clear
10:53 PM 41.0 °F 31.6 °F 24.1 °F 51% 29.94 in 10.0 mi WSW 20.7 mph - N/A   Clear
11:53 PM 42.1 °F 33.9 °F 24.1 °F 49% 29.95 in 10.0 mi SW 17.3 mph - N/A   Clear